This is the latest recevied weather packets stored in our database for station/object KE8AFF-13. If no packets are shown the sender has not sent any weather packets the latest 10 day(s).
| Time | Temp. | Humidity | Pressure | Rain* | Wind** | Luminosity | Snow |
|---|---|---|---|---|---|---|---|
| 1777927760 | 22.78° C | 55% | 1004.5 hPa | 0 mm | - | 288 W/m² | - |
| 1777927458 | 22.78° C | 55% | 1004.5 hPa | 0 mm | - | 189 W/m² | - |
| 1777927157 | 22.78° C | 54% | 1004.5 hPa | 0 mm | - | 560 W/m² | - |
| 1777926854 | 22.78° C | 54% | 1004.2 hPa | 0 mm | - | 562 W/m² | - |
| 1777926549 | 22.78° C | 54% | 1004.1 hPa | 0 mm | - | 563 W/m² | - |
| 1777926246 | 22.78° C | 55% | 1004.3 hPa | 0 mm | - | 333 W/m² | - |
| 1777925943 | 22.78° C | 55% | 1004.5 hPa | 0 mm | - | 494 W/m² | - |
| 1777925641 | 22.78° C | 55% | 1004.7 hPa | 0 mm | - | 252 W/m² | - |
| 1777925338 | 22.78° C | 54% | 1004.6 hPa | 0 mm | - | 211 W/m² | - |
| 1777925034 | 23.33° C | 54% | 1004.7 hPa | 0 mm | - | 275 W/m² | - |
| 1777924731 | 22.78° C | 54% | 1004.6 hPa | 0 mm | - | 327 W/m² | - |
| 1777924426 | 22.78° C | 54% | 1004.6 hPa | 0 mm | - | 258 W/m² | - |
| 1777924123 | 22.78° C | 54% | 1004.7 hPa | 0 mm | - | 331 W/m² | - |
| 1777923819 | 23.33° C | 54% | 1004.7 hPa | 0 mm | - | 327 W/m² | - |
| 1777923516 | 23.33° C | 53% | 1004.8 hPa | 0 mm | - | 333 W/m² | - |
| 1777923213 | 23.33° C | 54% | 1004.7 hPa | 0 mm | - | 412 W/m² | - |
| 1777922911 | 23.33° C | 53% | 1004.9 hPa | 0 mm | - | 736 W/m² | - |
| 1777922609 | 22.78° C | 54% | 1004.7 hPa | 0 mm | - | 770 W/m² | - |
| 1777922307 | 22.78° C | 54% | 1005 hPa | 0 mm | - | 257 W/m² | - |
| 1777922005 | 22.78° C | 54% | 1005.1 hPa | 0 mm | - | 405 W/m² | - |
| 1777921700 | 22.78° C | 55% | 1005.2 hPa | 0 mm | - | 438 W/m² | - |
| 1777921396 | 22.78° C | 54% | 1004.9 hPa | 0 mm | - | 780 W/m² | - |
| 1777921093 | 22.78° C | 54% | 1005.1 hPa | 0 mm | - | 895 W/m² | - |
| 1777920790 | 22.22° C | 55% | 1005.1 hPa | 0 mm | - | 499 W/m² | - |
| 1777920486 | 22.22° C | 56% | 1005 hPa | 0 mm | - | 343 W/m² | - |
* Rain latest hour (hover to see other rain measurements)
** Current wind speed in m/s (hover to see current wind gust speed)